| time (UTC) | temp C | wind direction | speed KPH | gust KPH | rain 1hr cm | rain 24hr cm | rain mn cm | humidity % | barometer mb |
| 20260505210037 | 10 | 161 | 8.0 | 9.7 | 0.00 | 0.00 | 0.00 | 93 | 1015.0 |
| 20260505205036 | 11 | 108 | 6.4 | 8.0 | 0.00 | 0.00 | 0.00 | 92 | 1015.1 |
| 20260505204035 | 11 | 151 | 8.0 | 9.7 | 0.00 | 0.00 | 0.00 | 91 | 1015.0 |
| 20260505203033 | 11 | 160 | 8.0 | 9.7 | 0.00 | 0.00 | 0.00 | 92 | 1014.9 |
| 20260505202032 | 11 | 136 | 6.4 | 9.7 | 0.00 | 0.00 | 0.00 | 91 | 1014.8 |
| 20260505201031 | 11 | 149 | 6.4 | 9.7 | 0.00 | 0.00 | 0.00 | 91 | 1014.7 |
| 20260505200030 | 11 | 158 | 4.8 | 6.4 | 0.00 | 0.00 | 0.00 | 90 | 1014.6 |
| 20260505195049 | 11 | 71 | 3.2 | 6.4 | 0.00 | 0.00 | 0.00 | 89 | 1014.5 |
| 20260505194028 | 12 | 152 | 4.8 | 6.4 | 0.00 | 0.00 | 0.00 | 88 | 1014.4 |
| 20260505193026 | 12 | 170 | 4.8 | 6.4 | 0.00 | 0.00 | 0.00 | 88 | 1014.4 |
| 20260505192025 | 12 | 180 | 6.4 | 8.0 | 0.00 | 0.00 | 0.00 | 86 | 1014.3 |
| 20260505191024 | 12 | 181 | 4.8 | 6.4 | 0.00 | 0.00 | 0.00 | 86 | 1014.2 |
| 20260505190023 | 12 | 162 | 4.8 | 11.3 | 0.00 | 0.00 | 0.00 | 86 | 1013.9 |
| 20260505185022 | 13 | 163 | 3.2 | 4.8 | 0.00 | 0.00 | 0.00 | 84 | 1013.9 |
| 20260505184020 | 14 | 185 | 4.8 | 6.4 | 0.00 | 0.00 | 0.00 | 80 | 1013.9 |
| 20260505183040 | 14 | 206 | 4.8 | 11.3 | 0.00 | 0.00 | 0.00 | 76 | 1013.8 |
| 20260505182038 | 15 | 173 | 3.2 | 6.4 | 0.00 | 0.00 | 0.00 | 77 | 1013.8 |
| 20260505181016 | 15 | 157 | 3.2 | 6.4 | 0.00 | 0.00 | 0.00 | 75 | 1013.9 |
| 20260505180115 | 15 | 215 | 6.4 | 11.3 | 0.00 | 0.00 | 0.00 | 75 | 1013.9 |
| 20260505175114 | 15 | 162 | 4.8 | 6.4 | 0.00 | 0.00 | 0.00 | 77 | 1014.0 |
| 20260505174113 | 15 | 163 | 3.2 | 6.4 | 0.00 | 0.00 | 0.00 | 78 | 1013.9 |
| 20260505173112 | 14 | 179 | 4.8 | 9.7 | 0.00 | 0.00 | 0.00 | 78 | 1014.0 |
| 20260505172111 | 14 | 152 | 8.0 | 14.5 | 0.00 | 0.00 | 0.00 | 79 | 1013.8 |
| 20260505171109 | 13 | 163 | 8.0 | 11.3 | 0.00 | 0.00 | 0.00 | 82 | 1013.6 |
| 20260505170108 | 13 | 179 | 6.4 | 11.3 | 0.00 | 0.00 | 0.00 | 82 | 1013.7 |
| 20260505165107 | 13 | 149 | 3.2 | 8.0 | 0.00 | 0.00 | 0.00 | 83 | 1013.6 |
| 20260505164146 | 13 | 161 | 4.8 | 8.0 | 0.00 | 0.00 | 0.00 | 82 | 1013.7 |
| 20260505163105 | 13 | 140 | 3.2 | 4.8 | 0.00 | 0.00 | 0.00 | 83 | 1013.8 |
| 20260505162124 | 13 | 112 | 1.6 | 4.8 | 0.00 | 0.00 | 0.00 | 83 | 1013.8 |
| 20260505161102 | 13 | 223 | 1.6 | 4.8 | 0.00 | 0.00 | 0.00 | 83 | 1014.0 |
| 20260505153058 | 13 | 173 | 1.6 | 8.0 | 0.00 | 0.00 | 0.00 | 82 | 1013.9 |
| 20260505152056 | 13 | 244 | 6.4 | 9.7 | 0.00 | 0.00 | 0.00 | 80 | 1013.9 |
| 20260505151055 | 14 | 217 | 4.8 | 8.0 | 0.00 | 0.00 | 0.00 | 77 | 1013.8 |
| 20260505125038 | 16 | 277 | 6.4 | 9.7 | 0.00 | 0.00 | 0.00 | 75 | 1013.6 |
| 20260505124037 | 15 | 240 | 6.4 | 16.1 | 0.00 | 0.00 | 0.00 | 74 | 1013.6 |
| 20260505123037 | 15 | 291 | 3.2 | 8.0 | 0.00 | 0.00 | 0.00 | 76 | 1013.7 |
| 20260505122035 | 15 | 226 | 6.4 | 8.0 | 0.00 | 0.00 | 0.00 | 76 | 1013.7 |
| 20260505121034 | 15 | 20 | 1.6 | 4.8 | 0.00 | 0.00 | 0.00 | 78 | 1013.6 |
| 20260505120032 | 15 | 123 | 1.6 | 3.2 | 0.00 | 0.00 | 0.00 | 78 | 1013.7 |
| 20260505115031 | 13 | 85 | 3.2 | 8.0 | 0.00 | 0.00 | 0.00 | 80 | 1013.7 |
| 20260505114030 | 13 | 343 | 4.8 | 6.4 | 0.00 | 0.00 | 0.00 | 84 | 1013.8 |
| 20260505113050 | 13 | 161 | 1.6 | 3.2 | 0.00 | 0.00 | 0.00 | 84 | 1013.9 |
| 20260505112028 | 13 | 226 | 1.6 | 6.4 | 0.00 | 0.00 | 0.00 | 84 | 1013.9 |
| 20260505111047 | 13 | 355 | 1.6 | 4.8 | 0.00 | 0.00 | 0.00 | 85 | 1013.9 |
| 20260505102042 | 12 | 355 | 3.2 | 3.2 | 0.00 | 0.00 | 0.00 | 85 | 1014.3 |
| 20260505101039 | 12 | 9 | 3.2 | 4.8 | 0.00 | 0.00 | 0.00 | 85 | 1014.3 |
| 20260505100018 | 12 | 16 | 1.6 | 3.2 | 0.00 | 0.00 | 0.00 | 85 | 1014.2 |
| 20260505095017 | 12 | 51 | 3.2 | 4.8 | 0.00 | 0.00 | 0.00 | 84 | 1014.1 |
| 20260505094116 | 12 | 51 | 1.6 | 4.8 | 0.00 | 0.00 | 0.00 | 85 | 1014.1 |
| 20260505093114 | 12 | 124 | 1.6 | 3.2 | 0.00 | 0.00 | 0.00 | 86 | 1014.2 |
| 20260505092134 | 12 | 261 | 3.2 | 6.4 | 0.00 | 0.00 | 0.00 | 87 | 1014.1 |
| 20260505091112 | 12 | 320 | 1.6 | 8.0 | 0.00 | 0.00 | 0.00 | 87 | 1014.1 |
| 20260505090111 | 12 | 13 | 3.2 | 6.4 | 0.00 | 0.00 | 0.00 | 87 | 1014.0 |
| 20260505085110 | 12 | 44 | 3.2 | 8.0 | 0.00 | 0.00 | 0.00 | 88 | 1014.1 |
| 20260505084109 | 12 | 77 | 3.2 | 6.4 | 0.00 | 0.00 | 0.00 | 89 | 1014.3 |
| 20260505083108 | 11 | 79 | 3.2 | 8.0 | 0.00 | 0.00 | 0.00 | 89 | 1014.3 |
| 20260505082107 | 11 | 97 | 1.6 | 4.8 | 0.00 | 0.00 | 0.00 | 90 | 1014.4 |
| 20260505081105 | 11 | 144 | 6.4 | 8.0 | 0.00 | 0.00 | 0.00 | 90 | 1014.5 |
| 20260505080104 | 11 | 120 | 3.2 | 8.0 | 0.00 | 0.00 | 0.00 | 91 | 1014.6 |
| 20260505075104 | 11 | 86 | 3.2 | 8.0 | 0.00 | 0.00 | 0.00 | 92 | 1014.6 |
| 20260505074102 | 11 | 86 | 4.8 | 11.3 | 0.00 | 0.00 | 0.00 | 93 | 1014.7 |
| 20260505073100 | 11 | 128 | 6.4 | 9.7 | 0.00 | 0.00 | 0.00 | 92 | 1015.0 |
| 20260505072059 | 11 | 113 | 6.4 | 11.3 | 0.00 | 0.00 | 0.00 | 92 | 1015.1 |
| 20260505071058 | 11 | 116 | 8.0 | 12.9 | 0.00 | 0.00 | 0.00 | 91 | 1015.2 |
| 20260505070117 | 11 | 131 | 6.4 | 11.3 | 0.00 | 0.00 | 0.00 | 92 | 1015.1 |
| 20260505065056 | 11 | 52 | 4.8 | 9.7 | 0.00 | 0.00 | 0.00 | 92 | 1015.3 |
| 20260505064055 | 10 | 74 | 11.3 | 19.3 | 0.00 | 0.00 | 0.00 | 91 | 1015.3 |
| 20260505063054 | 10 | 64 | 4.8 | 6.4 | 0.00 | 0.00 | 0.00 | 91 | 1015.3 |
| 20260505062053 | 10 | 91 | 3.2 | 6.4 | 0.00 | 0.00 | 0.00 | 92 | 1015.5 |
| 20260505061051 | 10 | 120 | 6.4 | 9.7 | 0.00 | 0.00 | 0.00 | 92 | 1015.4 |
| 20260505060110 | 10 | 124 | 4.8 | 9.7 | 0.00 | 0.00 | 0.00 | 92 | 1015.4 |
| 20260505055049 | 10 | 99 | 4.8 | 9.7 | 0.00 | 0.00 | 0.00 | 93 | 1015.5 |
| 20260505054047 | 10 | 66 | 6.4 | 11.3 | 0.00 | 0.00 | 0.00 | 93 | 1015.4 |
| 20260505053046 | 9 | 151 | 4.8 | 6.4 | 0.00 | 0.00 | 0.00 | 93 | 1015.4 |
| 20260505052106 | 9 | 113 | 6.4 | 9.7 | 0.00 | 0.00 | 0.00 | 94 | 1015.3 |
| 20260505051044 | 8 | 95 | 6.4 | 9.7 | 0.00 | 0.00 | 0.00 | 94 | 1015.2 |
| 20260505041037 | 8 | 142 | 4.8 | 8.0 | 0.00 | 0.00 | 0.00 | 95 | 1015.5 |
| 20260505040036 | 8 | 147 | 6.4 | 8.0 | 0.00 | 0.00 | 0.00 | 95 | 1015.5 |
| 20260505035035 | 8 | 161 | 6.4 | 9.7 | 0.00 | 0.00 | 0.00 | 95 | 1015.4 |
| 20260505034034 | 8 | 102 | 4.8 | 9.7 | 0.00 | 0.00 | 0.00 | 95 | 1015.4 |
| 20260505033032 | 8 | 84 | 3.2 | 6.4 | 0.00 | 0.00 | 0.00 | 96 | 1015.6 |
| 20260505032031 | 8 | 68 | 3.2 | 6.4 | 0.00 | 0.00 | 0.00 | 95 | 1015.6 |
| 20260505031051 | 8 | 52 | 4.8 | 6.4 | 0.00 | 0.00 | 0.00 | 95 | 1015.6 |
| 20260505030049 | 8 | 93 | 3.2 | 8.0 | 0.00 | 0.00 | 0.00 | 95 | 1015.8 |
| 20260505025048 | 8 | 66 | 4.8 | 8.0 | 0.00 | 0.00 | 0.00 | 95 | 1015.7 |
| 20260505024027 | 8 | 144 | 4.8 | 8.0 | 0.00 | 0.00 | 0.00 | 95 | 1015.8 |
| 20260505023026 | 8 | 155 | 3.2 | 8.0 | 0.00 | 0.00 | 0.00 | 95 | 1015.9 |
| 20260505022026 | 8 | 118 | 4.8 | 14.5 | 0.00 | 0.00 | 0.00 | 95 | 1015.9 |
| 20260505021024 | 8 | 145 | 8.0 | 14.5 | 0.00 | 0.00 | 0.00 | 95 | 1016.0 |
| 20260505020022 | 8 | 151 | 6.4 | 12.9 | 0.00 | 0.00 | 0.00 | 94 | 1016.0 |
| 20260505015021 | 8 | 156 | 8.0 | 12.9 | 0.00 | 0.00 | 0.00 | 95 | 1016.1 |
| 20260505014021 | 8 | 147 | 9.7 | 12.9 | 0.00 | 0.00 | 0.00 | 95 | 1016.0 |
| 20260505013019 | 8 | 140 | 6.4 | 8.0 | 0.00 | 0.00 | 0.00 | 95 | 1016.1 |
| 20260505012018 | 8 | 126 | 4.8 | 6.4 | 0.00 | 0.00 | 0.00 | 95 | 1016.2 |
| 20260505011017 | 8 | 136 | 4.8 | 8.0 | 0.00 | 0.00 | 0.00 | 95 | 1016.3 |
| 20260505010116 | 8 | 129 | 4.8 | 6.4 | 0.00 | 0.00 | 0.00 | 95 | 1016.4 |
| 20260505005115 | 8 | 128 | 6.4 | 8.0 | 0.00 | 0.00 | 0.00 | 95 | 1016.6 |
| 20260505004133 | 8 | 120 | 8.0 | 9.7 | 0.00 | 0.00 | 0.00 | 95 | 1016.7 |
| 20260505003113 | 8 | 141 | 6.4 | 9.7 | 0.00 | 0.00 | 0.00 | 95 | 1016.9 |
| 20260505002111 | 8 | 135 | 6.4 | 8.0 | 0.00 | 0.00 | 0.00 | 94 | 1017.0 |
| 20260505001110 | 8 | 143 | 6.4 | 8.0 | 0.00 | 0.00 | 0.00 | 94 | 1017.2 |
| 20260505000109 | 8 | 142 | 4.8 | 6.4 | 0.00 | 0.00 | 0.00 | 95 | 1017.1 |
| 20260504235107 | 8 | 117 | 6.4 | 8.0 | 0.00 | 0.00 | 0.00 | 95 | 1017.2 |
| 20260504234106 | 8 | 147 | 6.4 | 8.0 | 0.00 | 0.00 | 0.00 | 94 | 1017.4 |
| 20260504233106 | 8 | 149 | 8.0 | 9.7 | 0.00 | 0.00 | 0.00 | 94 | 1017.4 |
| 20260504232104 | 8 | 146 | 8.0 | 9.7 | 0.00 | 0.00 | 0.00 | 94 | 1017.6 |
| 20260504231103 | 8 | 154 | 8.0 | 9.7 | 0.00 | 0.00 | 0.00 | 94 | 1017.8 |
| 20260504225120 | 9 | 138 | 8.0 | 9.7 | 0.00 | 0.00 | 0.00 | 94 | 1017.7 |
| 20260504224120 | 9 | 136 | 6.4 | 9.7 | 0.00 | 0.00 | 0.00 | 94 | 1017.7 |
| 20260504223058 | 9 | 144 | 8.0 | 9.7 | 0.00 | 0.00 | 0.00 | 95 | 1017.9 |
| 20260504222117 | 9 | 124 | 6.4 | 8.0 | 0.00 | 0.00 | 0.00 | 95 | 1017.9 |
| 20260504221057 | 9 | 121 | 4.8 | 6.4 | 0.00 | 0.00 | 0.00 | 94 | 1018.0 |
| 20260504220055 | 9 | 101 | 6.4 | 8.0 | 0.00 | 0.00 | 0.00 | 94 | 1018.1 |
| 20260504215053 | 10 | 114 | 4.8 | 8.0 | 0.00 | 0.00 | 0.00 | 93 | 1018.0 |
| 20260504214112 | 10 | 139 | 6.4 | 8.0 | 0.00 | 0.00 | 0.00 | 93 | 1018.0 |
| 20260504213051 | 10 | 130 | 4.8 | 6.4 | 0.00 | 0.00 | 0.00 | 92 | 1018.2 |
| 20260504212050 | 10 | 158 | 4.8 | 6.4 | 0.00 | 0.00 | 0.00 | 91 | 1018.2 |
| 20260504211049 | 10 | 157 | 3.2 | 4.8 | 0.00 | 0.00 | 0.00 | 92 | 1018.3 |